Regional Weather Roundup
Issued by NWS

Home | Current Version | Previous Version | Graphics & Text | Print | Product List | Glossary On
Versions: 1 2 3 4 5 6 7 8 9 10 11 12 13 14 15 16 17 18 19 20 21 22 23 24 25 26 27 28 29 30 31 32 33 34 35 36 37 38 39 40 41 42 43 44 45 46 47 48 49 50
530
ASUS45 KSLC 241510
RWRUT

UTAH REGIONAL WEATHER ROUNDUP
NATIONAL WEATHER SERVICE SALT LAKE CITY UT
800 AM MST FRI NOV 24 2017

UTZ001>011-023>025-241600-

NORTHERN UTAH

CITY           SKY/WX    TMP DP  RH WIND       PRES   REMARKS
BRIGHAM CITY   MOCLDY    38  35  89 CALM      30.00R
HILL AFB       MOCLDY    50  37  61 SW8       30.01R
LOGAN          PTCLDY    39  35  86 SE3       29.98R
OGDEN          MOCLDY    49  38  65 SW8       30.00R
SALT LAKE CITY MOCLDY    45  42  89 N8        30.00R
TOOELE VALLEY  MOCLDY    37  37 100 E3        30.02R FOG
WENDOVER       CLEAR     37  33  85 CALM      30.02R
HEBER CITY       N/A     37  32  81 SE3       29.99R
WEST JORDAN    MOCLDY    50  39  64 W9        30.01R

$$

UTZ011>015-024>027-241600-

CENTRAL/NORTHEAST UTAH

CITY           SKY/WX    TMP DP  RH WIND       PRES   REMARKS
PROVO AIRPORT  MOCLDY    44  38  79 CALM      29.99R
MOAB/CANYONLAN PTCLDY    34  24  67 CALM      30.05R
DELTA          MOCLDY    48  28  46 S12       30.01F
PRICE          CLOUDY    40  32  73 CALM      30.08R
RICHFIELD      CLEAR     41  30  65 CALM      30.06R
ROOSEVELT      CLOUDY    30  27  86 SW3       30.04R
VERNAL         CLOUDY    32  28  85 W6        30.00F WCI  26

$$

UTZ013>016-019>022-027-241600-

SOUTHERN UTAH

CITY           SKY/WX    TMP DP  RH WIND       PRES   REMARKS
BRYCE CANYON   PTCLDY    26  17  68 W8        30.19F WCI  18
CEDAR CITY     PTCLDY    42  21  43 S6        30.09S
MILFORD        PTCLDY    47  26  44 SW17      30.05R
ST GEORGE      CLOUDY    42  30  62 N3        30.07R
HANKSVILLE     MOCLDY    30  19  64 CALM      30.09S
KANAB          CLEAR     34  25  69 CALM      30.16S
BLANDING         N/A     38  30  72 CALM      30.21S

$$

REGIONAL REPORTS     COLORADO/ARIZONA

CITY           SKY/WX    TMP DP  RH WIND       PRES   REMARKS
CRAIG, CO      CLOUDY    31  30  96 CALM      30.03S
GRAND JUNCTION CLEAR     39  33  79 CALM      30.06F
RIFLE, CO      CLOUDY    36  34  92 CALM      30.09S
MONTROSE, CO   CLOUDY    38  28  67 CALM      30.12R
CORTEZ, CO     CLOUDY    29  23  78 E5        30.15S WCI  24
COLORADO CITY    N/A     32  28  86 E7        30.13S WCI  26
PAGE, AZ       PTCLDY    45  32  60 N5        30.10R
GRAND CANYON   PTCLDY    27  15  61 CALM      30.19S
KINGMAN, AZ    CLEAR     50  28  42 CALM      30.03R
FLAGSTAFF, AZ  CLEAR     37  23  56 SW5       30.21R WCI  33

$$

REGIONAL REPORTS    NEVADA/IDAHO/WYOMING

CITY           SKY/WX    TMP DP  RH WIND       PRES   REMARKS
LAS VEGAS, NV  MOCLDY    56  37  49 S5        29.99R
ELY, NY        CLEAR     33  22  63 S8        30.12R WCI  26
ELKO, NV       PTCLDY    39  32  76 SE3       30.08R
POCATELLO, ID  RAIN      45  43  93 SW20G26   30.01R
BURLEY, ID     LGT RAIN  46  44  93 W5        30.00R
FORT BRIDGER,    N/A     42  32  66 W10       30.06R
EVANSTON, WY   CLOUDY    44  32  62 W16       30.03R
ROCK SPRINGS,  CLOUDY    39  29  67 SW10      30.00R WCI  32
KEMMERER, WY   CLOUDY    34  30  86 W5        30.03R WCI  30

$$




USA.gov is the U.S. government's official web portal to all federal, state and local government web resources and services.